Change the Weather History Date:

Sunday, October 27, 2013

  Actual Average Record
Temperature  
Mean Temperature 48 °F -  
Max Temperature 57 °F 55 °F 80 °F (1947)
Min Temperature 37 °F 37 °F 23 °F (1950)
Degree Days  
Heating Degree Days 17    
Moisture  
Dew Point 32 °F    
Average Humidity 54    
Maximum Humidity 86    
Minimum Humidity 33    
Precipitation  
Precipitation 0.00 in - - ()
Sea Level Pressure  
Sea Level Pressure 29.93 in    
Wind  
Wind Speed 5 mph (WSW)    
Max Wind Speed 12 mph    
Max Gust Speed 20 mph    
Visibility 10 miles    
Events Rain    
Averages and records for this station are not official NWS values.
T = Trace of Precipitation, MM = Missing Value Source: NWS Daily Summary

Daily Weather History Graph

Daily Weather History Graph

Search for Another Location

Airport or City:

Trip Planner

Search our weather history database for the weather conditions in past years. The results will help you decide how hot, cold, wet, or windy it might be!

Date:

Astronomy

Oct. 27, 2013 Rise Set
Actual Time 7:16 AM EDT 5:51 PM EDT
Civil Twilight 6:48 AM EDT 6:19 PM EDT
Nautical Twilight 6:15 AM EDT 6:52 PM EDT
Astronomical Twilight 5:43 AM EDT 7:24 PM EDT
Moon 12:05 AM EDT (10/27) 2:04 PM EDT (10/27)
Length of Visible Light 11h 31m
Length of Day
10h 34m
Last Quarter, 44% of the Moon is Illuminated
Oct 27
Last Quarter
Nov 3
New
Nov 10
First Quarter
Nov 17
Full
Nov 25
Last Quarter

Hourly Weather History & Observations

Time (EDT) Temp. Windchill Dew Point Humidity Pressure Visibility Wind Dir Wind Speed Gust Speed Precip Events Conditions
12:53 AM 51.1 °F - 30.9 °F 46% 29.88 in 10.0 mi SSW 6.9 mph - 0.00 in Rain Light Rain
1:53 AM 50.0 °F - 30.9 °F 48% 29.87 in 10.0 mi SSW 5.8 mph - 0.00 in   Overcast
2:53 AM 48.9 °F - 34.0 °F 56% 29.86 in 10.0 mi SSW 8.1 mph 17.3 mph 0.00 in Rain Light Rain
3:53 AM 46.9 °F - 36.0 °F 66% 29.84 in 10.0 mi South 5.8 mph - 0.00 in   Overcast
4:53 AM 46.0 °F 43.9 °F 37.9 °F 73% 29.83 in 10.0 mi South 4.6 mph - N/A   Overcast
5:53 AM 44.1 °F 42.5 °F 37.0 °F 76% 29.84 in 10.0 mi SSE 3.5 mph - N/A   Scattered Clouds
6:53 AM 43.0 °F - 36.0 °F 76% 29.86 in 10.0 mi Calm Calm - N/A   Clear
7:53 AM 41.0 °F - 35.1 °F 79% 29.88 in 10.0 mi Calm Calm - N/A   Clear
8:53 AM 46.9 °F - 34.0 °F 61% 29.91 in 10.0 mi WSW 4.6 mph - N/A   Clear
9:53 AM 50.0 °F - 32.0 °F 50% 29.92 in 10.0 mi Variable 3.5 mph - N/A   Clear
10:53 AM 52.0 °F - 30.9 °F 45% 29.92 in 10.0 mi Variable 6.9 mph - N/A   Scattered Clouds
11:53 AM 55.0 °F - 32.0 °F 42% 29.92 in 10.0 mi Calm Calm - N/A   Mostly Cloudy
12:53 PM 55.9 °F - 30.0 °F 37% 29.90 in 10.0 mi WSW 5.8 mph - N/A   Mostly Cloudy
1:53 PM 57.0 °F - 30.0 °F 36% 29.90 in 10.0 mi NW 11.5 mph 18.4 mph N/A   Mostly Cloudy
2:53 PM 55.9 °F - 28.0 °F 34% 29.91 in 10.0 mi West 11.5 mph 18.4 mph N/A   Scattered Clouds
3:53 PM 55.0 °F - 28.0 °F 35% 29.92 in 10.0 mi WNW 9.2 mph - N/A   Scattered Clouds
4:53 PM 55.0 °F - 26.1 °F 33% 29.94 in 10.0 mi NW 11.5 mph 19.6 mph N/A   Partly Cloudy
5:53 PM 53.1 °F - 26.1 °F 35% 29.97 in 10.0 mi NW 6.9 mph - N/A   Clear
6:53 PM 51.1 °F - 27.0 °F 39% 30.00 in 10.0 mi NNW 3.5 mph - N/A   Clear
7:53 PM 50.0 °F - 27.0 °F 41% 30.02 in 10.0 mi NW 3.5 mph - N/A   Clear
8:53 PM 43.0 °F - 33.1 °F 68% 30.04 in 10.0 mi Calm Calm - N/A   Clear
9:53 PM 45.0 °F - 30.0 °F 56% 30.07 in 10.0 mi Calm Calm - N/A   Clear
10:53 PM 39.9 °F - 33.1 °F 77% 30.09 in 10.0 mi Calm Calm - N/A   Clear
11:53 PM 37.9 °F - 34.0 °F 86% 30.11 in 10.0 mi Calm Calm - N/A   Clear